Location: Unspecified
(41.2830°S, 0.0000°E)
Time: 10:12:08
(UTC+00:00)

N. Korean satellite - Visible Passes

Search period start: 24 May 2019 00:00
Search period end: 03 June 2019 00:00
Orbit: 456 x 508 km, 97.2° (Epoch: 23 May)

Date Brightness Start Highest point End Pass type
(mag) Time Alt. Az. Time Alt. Az. Time Alt. Az.
24 May 6.3 05:21:26 10° N 05:24:54 80° WNW 05:26:01 42° SSW visible
24 May 7.1 18:21:05 10° S 18:24:46 61° WSW 18:28:28 10° NNW visible
25 May 7.5 04:56:38 10° NNE 04:59:58 45° ESE 05:00:40 38° SE visible
25 May 8.6 06:33:26 10° W 06:33:39 10° W 06:33:52 10° W visible
25 May 6.6 17:56:05 10° SSE 17:59:48 62° E 18:03:30 10° N visible
26 May 8.9 04:32:21 10° ENE 04:35:07 22° ESE 04:35:19 22° ESE visible
26 May 7.9 06:05:46 10° NW 06:08:27 21° W 06:09:37 18° WSW visible
26 May 7.6 17:31:25 10° SE 17:34:45 29° E 17:38:03 10° NNE visible
26 May 9.3 19:05:18 10° SSW 19:07:57 18° WSW 19:10:35 10° WNW visible
27 May 9.8 04:09:05 10° E 04:09:58 11° ESE 04:09:58 11° ESE visible
27 May 6.8 05:39:59 10° N 05:43:19 43° W 05:44:17 34° WSW visible
27 May 8.2 18:39:40 10° S 18:43:07 35° WSW 18:46:33 10° NW visible
28 May 6.5 05:14:48 10° NNE 05:18:18 83° ESE 05:18:56 57° S visible
28 May 6.8 18:14:27 10° S 18:18:12 74° WSW 18:21:57 10° NNW visible
29 May 7.9 04:50:07 10° NE 04:53:21 37° ESE 04:53:36 36° ESE visible
29 May 8.5 06:25:27 10° WNW 06:26:58 12° W 06:27:54 11° WSW visible
29 May 6.8 17:49:32 10° SSE 17:53:13 51° E 17:56:52 10° N visible
29 May 9.8 19:24:48 10° SW 19:26:10 12° WSW 19:27:31 10° W visible
30 May 9.2 04:25:59 10° ENE 04:28:15 19° ESE 04:28:15 19° ESE visible
30 May 7.6 05:58:50 10° NNW 06:01:47 25° W 06:02:34 23° WSW visible
30 May 7.8 17:24:57 10° SE 17:28:07 25° E 17:31:15 10° NNE visible
30 May 9.1 18:58:28 10° SSW 19:01:24 22° WSW 19:04:19 10° WNW visible
31 May 6.6 05:33:14 10° N 05:36:41 53° W 05:37:14 47° WSW visible
31 May 7.9 18:33:02 10° S 18:36:32 42° WSW 18:40:07 10° NW visible
01 Jun 6.8 05:08:10 10° NNE 05:11:40 67° ESE 05:11:54 64° SE visible
01 Jun 6.6 18:07:50 10° SSE 18:11:37 90° W 18:15:23 10° NNW visible
02 Jun 8.3 04:43:36 10° NE 04:46:35 31° ESE 04:46:35 31° ESE visible
02 Jun 8.3 06:18:10 10° NW 06:20:16 15° W 06:20:53 14° W visible
02 Jun 7.1 17:42:58 10° SSE 17:46:35 42° E 17:50:10 10° N visible
02 Jun 9.7 19:17:38 10° SW 19:19:36 14° WSW 19:21:35 10° W visible
